Location: Curicchi
(45.0167°N, 12.0500°E)
Time: 18:39:31
(UTC+00:00)

Cosmos 2366 rocket - Pass Details

Date: 07 June 2020
Orbit: 956 x 996 km, 82.9° (Epoch: 01 July)

Event Time Altitude Azimuth Distance (km) Brightness Sun altitude
Exits shadow 02:17:32 - 188° (S) 3,093 6.1 -10.0°
Reaches altitude 10° 02:18:32 10° 188° (S) 2,715 5.8 -9.8°
Maximum altitude 02:24:47 85° 278° (W) 993 4.0 -9.1°
Drops below altitude 10° 02:31:08 10° 7° (N) 2,761 7.2 -8.3°
Sets 02:33:41 0° 8° (N) 3,718 8.0 -8.0°
